Location: Maiden
(35.5760°N, 81.2120°W)
Time: 01:35:27
(UTC-04:00)

A-11 Canister half - Pass Details

Date: 05 August 2020
Orbit: 1527 x 1682 km, 47.3° (Epoch: 25 September)

Event Time Altitude Azimuth Distance (km) Brightness Sun altitude
Rises 18:40:29 0° 296° (WNW) 4,928 13.0 19.7°
Reaches altitude 10° 18:43:52 10° 302° (WNW) 3,929 12.5 19.0°
Maximum altitude 18:53:33 49° 16° (NNE) 2,032 9.8 17.0°
Drops below altitude 10° 19:02:57 10° 90° (E) 3,819 10.5 15.1°
Sets 19:06:11 0° 96° (E) 4,781 10.9 14.5°
